Location: Namasale
(1.5000°N, 32.6167°E)
Time: 16:46:31
(UTC+00:00)

BLOCK DM-SL R/B - Pass Details

Date: 09 April 2020
Orbit: 889 x 35724 km, 0.9° (Epoch: 26 May)

Event Time Altitude Azimuth Distance (km) Brightness Sun altitude
Rises 16:07:23 0° 267° (W) 4,377 9.1 -3.9°
Reaches altitude 10° 16:10:30 10° 265° (W) 2,839 7.6 -4.6°
Maximum altitude 16:15:40 77° 179° (S) 918 3.4 -5.9°
Drops below altitude 10° 16:22:00 10° 92° (E) 3,456 5.7 -7.5°
Enters shadow 16:22:35 - 92° (E) 3,741 5.8 -7.6°
